Showing default

GAOFEN 12 (02), 48079

Orbit data source: Space-Track

GAOFEN 12 (02), 48079 is a payload satellite owned by PLA SSF (CN) in SSO that was launched on Tue, 30 Mar 2021 UTC via a CHANG ZHENG 4C launch vehicle from the Jiuquan Satellite Launch Center, China (JSC). Payload-class satellites include a variety of spacecraft equipped with specific instruments for various scientific and technological missions. These include communications satellites like Starlink; space stations such as the ISS; scientific satellites like the Hubble; Earth observation satellites from companies like Planet Labs, Umbra, and HawkEye 360; GPS; miniature CubeSats for education and research; and military/defense satellites.

Loading next visibility...
Identifier
48079, 2021-026A
Orbit
SSO
Country
Flag of CNCN / PRC
Related business
Manufacturer
SAST
Mission
Operational Defense Radar Imaging
Bus & Motor
CS-L3000B?, Unknown motor
Mass
~3,000 kg wet, ~3,000 kg dry
Launch date (UTC)
2021-03-30 (5 years ago)
Launch vehicle
CHANG ZHENG 4C
Launch site
Jiuquan Satellite Launch Center, China (JSC)
Object type
Payload
Rocket body
Debris
Shape & HBR
Box + 3 Pan, 4.0 m
Radar Cross Section
10.846 m², Large (>1 m²)

Expand to show TLE details & history
Last TLE update: 21 hours ago

TLE from 21 hours ago
0 GAOFEN 12 (02)
1 48079U 21026A   26172.55203968  .00000238  00000-0  38176-4 0  9997
2 48079  97.9923 170.7148 0004005 204.2706 155.8318 14.80298823282409
Epoch: 2026-06-21T13:14Z
TLE epoch observation values (Epoch: 2026-06-21T13:14:56.228Z)
Latitude
0.00001°
Longitude
62.22984°
Altitude
633.961 km
Speed
7.54 km/s
True Right ascension
11h 22m 51s
True Declination
0° 00' 00"
Sunlit
Object was in daylight at epoch
Visualization orbit readout
Latitude
Unknown
Longitude
Unknown
Altitude
Unknown
Speed
Unknown
Apparent Right ascension
Unknown
Apparent Declination
Unknown
Sunlit
N/A
Visualization observer readout
Local Sidereal Time
21:38:36
Azimuth
Unknown
Elevation
Unknown
Doppler factor
Unknown
Orbital elements
Apogee altitude
628.231 km
Perigee altitude
622.621 km
Semi-major axis
7,003.563 km
Eccentricity
0.0004
Inclination
97.9923°
RAAN
170.7148°
Arg. of periapsis
204.2706°
True anomaly
155.85058°
Mean anomaly
155.8318°
Eccentric anomaly
155.84119°
Mean motion
3.70309 °/min
Orbital period
97.22 mins
BSTAR
0.000038176
Loading maneuver chart data...
Computing Atmospheric mass density...
Loading historical data...
Loading historical data...
Loading historical data...
Loading historical data...
Loading historical data...
Loading historical data...
Loading historical data...
Other satellites on launch #26 in the year 2021 (2021-03-30 UTC)

Documentation

Showing up to 5 results
|